TimeEDT,TemperatureF,Dew PointF,Humidity,Sea Level PressureIn,VisibilityMPH,Wind Direction,Wind SpeedMPH,Gust SpeedMPH,PrecipitationIn,Events,Conditions,WindDirDegrees,DateUTC
12:55 AM,36.0,30.0,79,29.99,10.0,South,10.4,-,N/A,,Clear,190,2012-10-08 04:55:00
1:55 AM,36.0,30.0,79,29.99,10.0,South,6.9,-,N/A,,Clear,190,2012-10-08 05:55:00
2:55 AM,35.1,30.0,82,30.00,10.0,SSW,4.6,-,N/A,,Clear,200,2012-10-08 06:55:00
3:55 AM,34.0,30.0,85,29.99,10.0,Calm,Calm,-,N/A,,Clear,0,2012-10-08 07:55:00
4:55 AM,32.0,28.9,88,29.99,10.0,SE,3.5,-,N/A,,Clear,140,2012-10-08 08:55:00
5:55 AM,32.0,27.0,82,30.00,10.0,Calm,Calm,-,N/A,,Clear,0,2012-10-08 09:55:00
6:55 AM,30.9,26.1,82,30.00,10.0,Calm,Calm,-,N/A,,Partly Cloudy,0,2012-10-08 10:55:00
7:55 AM,32.0,25.0,75,30.01,10.0,Calm,Calm,-,N/A,,Overcast,0,2012-10-08 11:55:00
8:55 AM,39.0,34.0,82,30.01,10.0,South,3.5,-,N/A,,Mostly Cloudy,180,2012-10-08 12:55:00
9:55 AM,45.0,36.0,71,30.01,10.0,South,6.9,-,N/A,,Clear,180,2012-10-08 13:55:00
10:55 AM,48.9,35.1,59,30.00,10.0,South,11.5,-,N/A,,Clear,190,2012-10-08 14:55:00
11:55 AM,51.1,34.0,52,29.99,10.0,South,16.1,21.9,N/A,,Clear,190,2012-10-08 15:55:00
12:55 PM,53.1,30.9,43,29.99,10.0,South,18.4,28.8,N/A,,Scattered Clouds,190,2012-10-08 16:55:00
1:55 PM,53.1,30.9,43,29.97,10.0,SSW,17.3,24.2,N/A,,Overcast,210,2012-10-08 17:55:00
2:55 PM,55.0,30.9,40,29.95,10.0,South,16.1,26.5,N/A,,Mostly Cloudy,190,2012-10-08 18:55:00
3:55 PM,54.0,30.9,41,29.94,10.0,South,17.3,25.3,N/A,,Overcast,190,2012-10-08 19:55:00
4:55 PM,54.0,30.9,41,29.94,10.0,South,15.0,24.2,N/A,,Overcast,190,2012-10-08 20:55:00
5:55 PM,53.1,30.0,41,29.92,10.0,South,11.5,18.4,N/A,,Overcast,170,2012-10-08 21:55:00
6:55 PM,51.1,30.0,44,29.92,10.0,SSE,8.1,-,N/A,,Mostly Cloudy,160,2012-10-08 22:55:00
7:55 PM,50.0,30.0,46,29.92,10.0,SSE,8.1,-,N/A,,Overcast,150,2012-10-08 23:55:00
8:55 PM,51.1,30.9,46,29.91,10.0,SSE,9.2,-,N/A,,Overcast,160,2012-10-09 00:55:00
9:55 PM,50.0,32.0,50,29.91,10.0,South,9.2,-,N/A,,Overcast,170,2012-10-09 01:55:00
10:55 PM,51.1,32.0,48,29.91,10.0,South,11.5,-,N/A,,Overcast,180,2012-10-09 02:55:00
11:55 PM,50.0,33.1,52,29.89,10.0,South,10.4,21.9,N/A,,Overcast,170,2012-10-09 03:55:00